| time (UTC) | temp F | wind direction | speed knots | gust knots | rain 1hr in | rain 24hr in | rain mn in | humidity % | barometer mb |
| 20260505053044 | 33 | 0 | 0.0 | 0.9 | 0.00 | 0.06 | 0.06 | 93 | 1016.1 |
| 20260505051543 | 33 | 171 | 0.0 | 1.7 | 0.00 | 0.06 | 0.06 | 93 | 1016.2 |
| 20260505041552 | 33 | 0 | 0.0 | 3.5 | 0.00 | 0.06 | 0.06 | 92 | 1016.1 |
| 20260505040046 | 32 | 0 | 0.0 | 1.7 | 0.00 | 0.06 | 0.06 | 92 | 1016.2 |
| 20260505034539 | 33 | 0 | 0.0 | 3.5 | 0.01 | 0.06 | 0.06 | 92 | 1016.0 |
| 20260505033038 | 32 | 0 | 0.0 | 1.7 | 0.02 | 0.06 | 0.06 | 91 | 1016.0 |
| 20260505031544 | 32 | 0 | 0.0 | 0.9 | 0.05 | 0.06 | 0.06 | 91 | 1016.4 |
| 20260505030056 | 33 | 74 | 0.0 | 2.6 | 0.06 | 0.06 | 0.06 | 89 | 1016.1 |
| 20260505024551 | 34 | 97 | 1.7 | 6.1 | 0.05 | 0.05 | 0.05 | 87 | 1016.1 |
| 20260505023042 | 36 | 125 | 1.7 | 5.2 | 0.04 | 0.04 | 0.04 | 86 | 1015.9 |
| 20260505021538 | 38 | 0 | 0.9 | 6.1 | 0.01 | 0.01 | 0.01 | 83 | 1015.9 |
| 20260505020040 | 40 | 58 | 3.5 | 7.8 | 0.00 | 0.00 | 0.00 | 72 | 1015.2 |
| 20260505014603 | 41 | 155 | 4.3 | 9.6 | 0.00 | 0.00 | 0.00 | 68 | 1014.9 |
| 20260505013050 | 42 | 121 | 2.6 | 8.7 | 0.00 | 0.00 | 0.00 | 65 | 1014.5 |
| 20260505011544 | 44 | 0 | 0.0 | 2.6 | 0.00 | 0.00 | 0.00 | 57 | 1014.4 |
| 20260505010053 | 45 | 0 | 0.9 | 3.5 | 0.00 | 0.00 | 0.00 | 53 | 1014.2 |
| 20260505004548 | 45 | 0 | 0.9 | 6.1 | 0.00 | 0.00 | 0.00 | 52 | 1014.3 |
| 20260505003053 | 46 | 316 | 0.9 | 6.1 | 0.00 | 0.00 | 0.00 | 53 | 1014.5 |
| 20260505001545 | 45 | 0 | 0.9 | 4.3 | 0.00 | 0.00 | 0.00 | 56 | 1014.7 |
| 20260505000043 | 44 | 264 | 0.0 | 3.5 | 0.00 | 0.00 | 0.00 | 64 | 1015.4 |
| 20260504234545 | 42 | 257 | 0.0 | 1.7 | 0.00 | 0.00 | 0.00 | 69 | 1015.4 |
| 20260504233039 | 42 | 274 | 2.6 | 8.7 | 0.00 | 0.00 | 0.00 | 72 | 1015.6 |
| 20260504231539 | 45 | 309 | 4.3 | 10.4 | 0.00 | 0.00 | 0.00 | 57 | 1015.9 |
| 20260504230046 | 46 | 217 | 3.5 | 10.4 | 0.00 | 0.00 | 0.00 | 50 | 1015.5 |
| 20260504224543 | 47 | 265 | 9.6 | 22.6 | 0.00 | 0.00 | 0.00 | 44 | 1015.0 |
| 20260504223101 | 50 | 292 | 5.2 | 13.9 | 0.00 | 0.00 | 0.00 | 39 | 1014.6 |
| 20260504221540 | 53 | 270 | 2.6 | 9.6 | 0.00 | 0.00 | 0.00 | 36 | 1014.6 |
| 20260504220040 | 53 | 302 | 4.3 | 10.4 | 0.00 | 0.00 | 0.00 | 37 | 1014.8 |
| 20260504214538 | 53 | 319 | 3.5 | 12.2 | 0.00 | 0.00 | 0.00 | 37 | 1014.9 |
| 20260504213044 | 50 | 261 | 2.6 | 8.7 | 0.00 | 0.00 | 0.00 | 41 | 1015.4 |
| 20260504211615 | 48 | 281 | 2.6 | 13.0 | 0.00 | 0.00 | 0.00 | 43 | 1015.7 |
| 20260504210046 | 46 | 238 | 5.2 | 14.8 | 0.00 | 0.00 | 0.00 | 50 | 1015.7 |
| 20260504204539 | 49 | 279 | 7.0 | 22.6 | 0.00 | 0.00 | 0.00 | 40 | 1015.8 |
| 20260504203038 | 54 | 284 | 2.6 | 8.7 | 0.00 | 0.00 | 0.00 | 31 | 1014.8 |
| 20260504201538 | 55 | 355 | 1.7 | 7.8 | 0.00 | 0.00 | 0.00 | 33 | 1015.0 |
| 20260504200043 | 52 | 20 | 1.7 | 8.7 | 0.00 | 0.00 | 0.00 | 38 | 1015.3 |
| 20260504194549 | 49 | 348 | 4.3 | 10.4 | 0.00 | 0.00 | 0.00 | 47 | 1015.7 |
| 20260504193041 | 51 | 333 | 1.7 | 7.8 | 0.00 | 0.00 | 0.00 | 44 | 1016.2 |
| 20260504191546 | 47 | 261 | 3.5 | 10.4 | 0.00 | 0.00 | 0.00 | 57 | 1016.6 |
| 20260504190044 | 41 | 265 | 8.7 | 20.0 | 0.00 | 0.00 | 0.00 | 71 | 1017.3 |
| 20260504184550 | 45 | 268 | 9.6 | 20.0 | 0.00 | 0.00 | 0.00 | 63 | 1017.2 |
| 20260504183042 | 47 | 273 | 8.7 | 20.9 | 0.00 | 0.00 | 0.00 | 51 | 1016.8 |
| 20260504181538 | 52 | 261 | 4.3 | 15.6 | 0.00 | 0.00 | 0.00 | 33 | 1015.9 |
| 20260504180039 | 53 | 311 | 2.6 | 10.4 | 0.00 | 0.00 | 0.00 | 30 | 1015.9 |
| 20260504174543 | 51 | 253 | 5.2 | 12.2 | 0.00 | 0.00 | 0.00 | 35 | 1016.3 |
| 20260504173050 | 50 | 279 | 4.3 | 13.0 | 0.00 | 0.00 | 0.00 | 34 | 1016.7 |
| 20260504171544 | 49 | 222 | 2.6 | 11.3 | 0.00 | 0.00 | 0.00 | 35 | 1016.9 |
| 20260504081543 | 36 | 203 | 3.5 | 8.7 | 0.00 | 0.00 | 0.00 | 48 | 1018.2 |